DECAYED

OBJECT XM, 65733 (Decayed)

Orbit data source: Space-Track

You're viewing an Uncataloged Satellite

Recently launched and/or uncataloged satellites may have evolving metadata. Metadata may include but not limited to: Owner, Maufacturer, Bus, Motor, and Mission.

OBJECT XM, 65733 was a Japanese satellite in LEO that was delivered to and deployed from the ISS. Unknown objects in Earth's orbit typically refer to objects detected orbiting the Earth but have not yet been identified or cataloged. These objects could be anything from previously untracked satellites, spent rocket stages, debris from satellite collisions, or even natural meteoroids temporarily captured by Earth's gravity. This object's orbit decayed before it could be identified.

Not visible in the next 10 days
Identifier
65733, 1998-067XM
Orbit
Decayed
Country
Flag of JPJP / JPN
Related business
Manufacturer
GIDAI
Mission
Decayed Amateur Technology
Bus & Motor
CUBESAT 2U, Unknown motor
Mass
2 kg wet, 2 kg dry
Launch date (UTC)
1998-11-20 (27 years ago)
Launch vehicle
FALCON 9
Launch site
Tyuratam Missile And Space Complex (TTMTR)
Object type
Unknown
Shape & HBR
Box, 0.1 m
Radar Cross Section
0.025 m²

Expand to show TLE details & history
Last TLE update: 3 months ago

TLE from 3 months ago
0 OBJECT XM
1 65733U 98067XM  26020.92375749  .09795873  12158-4  14287-2 0  9993
2 65733  51.6117 289.2886 0004779 208.5099 151.5664 16.33783644 19418
Epoch: 2026-01-20T22:10Z
TLE epoch observation values (Epoch: 2026-01-20T22:10:12.647Z)
Latitude
-0.00001°
Longitude
-163.56276°
Altitude
185.913 km
Speed
7.795 km/s
True Right ascension
19h 17m 09s
True Declination
0° 00' 00"
Sunlit
Object was in daylight at epoch
Visualization orbit readout
Latitude
Unknown
Longitude
Unknown
Altitude
Unknown
Speed
Unknown
Apparent Right ascension
Unknown
Apparent Declination
Unknown
Sunlit
N/A
Visualization observer readout
Local Sidereal Time
05:45:31
Azimuth
Unknown
Elevation
Unknown
Doppler factor
Unknown
Orbital elements
Apogee altitude
186.057 km
Perigee altitude
179.786 km
Semi-major axis
6,561.059 km
Eccentricity
0.00048
Inclination
51.6117°
RAAN
289.2886°
Arg. of periapsis
208.5099°
True anomaly
151.59246°
Mean anomaly
151.5664°
Eccentric anomaly
151.57943°
Mean motion
4.08397 °/min
Orbital period
88.15 mins
BSTAR
0.0014287
Loading maneuver chart data...
Computing Atmospheric mass density...

Documentation

Showing up to 5 results
|